Simultaneous Nadir Overpasses (SNOs) Predictions

Prediction of SNOs between AURA and NPP Satellite Orbit:

Table of predicted SNOs for the next 14.0 days since TLE Epoch: 3/30/2014
Index Date (AURA) Time (AURA) Lat,Lon (AURA) SZA (AURA ) Date (NPP) Time (NPP) Lat,Lon (NPP) SZA (NPP ) Distance(km) Time Diff (sec)
1 04/01/2014 08:58:02 77.95, -66.09 90.14 04/01/2014 08:57:36 77.95, -66.01 90.14 1.94 26
2 04/01/2014 09:47:21 -78.31, 103.25 90.33 04/01/2014 09:48:13 -78.29, 103.15 90.35 2.61 52
3 04/04/2014 00:28:36 -67.39,-140.78 79.67 04/04/2014 00:27:23 -67.67,-142.54 79.30 80.97 73
4 04/04/2014 01:14:35 78.09, 50.45 88.91 04/04/2014 01:14:34 78.10, 50.54 88.89 2.25 1
5 04/04/2014 02:02:08 -81.64,-106.89 97.42 04/04/2014 02:03:22 -81.18,-106.42 97.64 51.74 74
6 04/06/2014 16:41:58 -77.69, -3.16 91.62 04/06/2014 16:41:01 -77.70, -3.06 91.60 2.48 57
7 04/06/2014 17:31:15 78.09, 166.25 87.88 04/06/2014 17:31:36 78.08, 166.20 87.88 1.20 21
8 04/09/2014 08:58:40 -77.75, 112.92 92.71 04/09/2014 08:58:01 -77.76, 112.98 92.69 1.42 39
9 04/09/2014 09:47:57 78.14, -77.66 86.79 04/09/2014 09:48:36 78.14, -77.75 86.78 2.13 39
10 04/12/2014 01:15:23 -77.88,-130.72 93.87 04/12/2014 01:14:58 -77.89,-130.60 93.88 2.90 25




NCC Satellite Simultaneous Nadir Overpasses (SNOs) Prediction Service
